This is the latest recevied weather packets stored in our database for station/object W1SCW. If no packets are shown the sender has not sent any weather packets the latest 1 day(s).
| Time | Temp. | Humidity | Pressure | Rain* | Wind** | Luminosity | Snow |
|---|---|---|---|---|---|---|---|
| 1778012441 | 29.44° C | 72% | 1006.4 hPa | 0 mm | 1.79 m/s, 136° | 405 W/m² | - |
| 1778012138 | 30° C | 71% | 1006.4 hPa | 0 mm | 1.79 m/s, 205° | 389 W/m² | - |
| 1778011836 | 29.44° C | 72% | 1006.7 hPa | 0 mm | 3.13 m/s, 217° | 506 W/m² | - |
| 1778011533 | 28.89° C | 73% | 1006.8 hPa | 0 mm | 1.79 m/s, 177° | 477 W/m² | - |
| 1778011230 | 28.89° C | 73% | 1006.9 hPa | 0 mm | 2.24 m/s, 130° | 383 W/m² | - |
| 1778010926 | 28.89° C | 74% | 1006.9 hPa | 0 mm | 1.79 m/s, 158° | 372 W/m² | - |
| 1778010624 | 28.89° C | 74% | 1006.7 hPa | 0 mm | 1.79 m/s, 177° | 399 W/m² | - |
| 1778010315 | 28.89° C | 73% | 1007 hPa | 0 mm | 2.68 m/s, 149° | 323 W/m² | - |
| 1778010010 | 28.89° C | 75% | 1007 hPa | 0 mm | 0.89 m/s, 140° | 392 W/m² | - |
| 1778009708 | 28.33° C | 75% | 1007.2 hPa | 0 mm | 2.68 m/s, 209° | 435 W/m² | - |
| 1778009405 | 28.33° C | 75% | 1007 hPa | 0 mm | 2.68 m/s, 224° | 477 W/m² | - |
| 1778009104 | 28.33° C | 74% | 1007.1 hPa | 0 mm | 1.34 m/s, 213° | 287 W/m² | - |
| 1778008801 | 28.89° C | 74% | 1007.1 hPa | 0 mm | 3.58 m/s, 203° | 332 W/m² | - |
| 1778008499 | 28.89° C | 73% | 1007.2 hPa | 0 mm | 2.68 m/s, 162° | 487 W/m² | - |
| 1778008196 | 29.44° C | 72% | 1007.1 hPa | 0 mm | 2.24 m/s, 204° | 490 W/m² | - |
| 1778007891 | 29.44° C | 73% | 1007 hPa | 0 mm | 1.79 m/s, 195° | 1190 W/m² | - |
| 1778007587 | 28.89° C | 74% | 1007.2 hPa | 0 mm | 1.79 m/s, 198° | 558 W/m² | - |
| 1778007284 | 28.89° C | 74% | 1007.1 hPa | 0 mm | 3.58 m/s, 159° | 409 W/m² | - |
| 1778006980 | 28.89° C | 74% | 1007.4 hPa | 0 mm | 1.34 m/s, 187° | 454 W/m² | - |
| 1778006677 | 28.89° C | 75% | 1007.3 hPa | 0 mm | 0.89 m/s, 220° | 514 W/m² | - |
| 1778006374 | 28.33° C | 76% | 1007.4 hPa | 0 mm | 2.68 m/s, 214° | 477 W/m² | - |
| 1778006071 | 27.78° C | 77% | 1007.4 hPa | 0 mm | 1.79 m/s, 172° | 467 W/m² | - |
| 1778005768 | 27.78° C | 78% | 1007.4 hPa | 0 mm | 0.89 m/s, 204° | 347 W/m² | - |
| 1778005465 | 27.22° C | 79% | 1007.4 hPa | 0 mm | 1.34 m/s, 166° | 343 W/m² | - |
| 1778005161 | 27.78° C | 78% | 1007.3 hPa | 0 mm | 2.68 m/s, 197° | 118 W/m² | - |
* Rain latest hour (hover to see other rain measurements)
** Current wind speed in m/s (hover to see current wind gust speed)